Regional Weather Roundup
Issued by NWS Charleston, WV

Home | Current Version | Previous Version | Graphics & Text | Print | Product List | Glossary On
Versions: 1 2 3 4 5 6 7 8 9 10 11 12 13 14 15 16 17 18 19 20 21 22 23 24 25 26 27 28 29 30 31 32 33 34 35 36 37 38 39 40 41 42 43 44 45 46 47 48 49 50
000
ASUS41 KRLX 170610
RWRRLX
West Virginia Regional Weather Roundup
National Weather Service Charleston WV
100 AM EST WED DEC 17 2014

Note: "fair" indicates few or no clouds below 12,000 feet with no
significant weather and/or obstructions to visibility.

WVZ003-170700-
Northern Panhandle of West Virginia

CITY           SKY/WX    TMP DP  RH WIND       PRES   REMARKS
WHEELING       CLOUDY    40  38  93 W13G18    29.94F
$$

WVZ009-170700-
Northwest West Virginia

CITY           SKY/WX    TMP DP  RH WIND       PRES   REMARKS
PARKERSBURG    CLOUDY    42  37  82 W14G21    30.05S
$$

WVZ006-170700-
Western West Virginia

CITY           SKY/WX    TMP DP  RH WIND       PRES   REMARKS
HUNTINGTON     CLOUDY    41  37  86 W10G21    30.09S
$$

WVZ015-170700-
West Central West Virginia

CITY           SKY/WX    TMP DP  RH WIND       PRES   REMARKS
CHARLESTON     CLOUDY    43  37  79 W9        30.06S
$$

WVZ022-031-170700-
North Central West Virginia

CITY           SKY/WX    TMP DP  RH WIND       PRES   REMARKS
CLARKSBURG     CLOUDY    41  39  93 W8        29.99S
MORGANTOWN     CLOUDY    42  36  79 SW8       29.98R
$$

WVZ025-035-042-045-170700-
Southern West Virginia

CITY           SKY/WX    TMP DP  RH WIND       PRES   REMARKS
BECKLEY        CLOUDY    39  36  89 W13G22    30.02S
LOGAN          CLOUDY    41  39  93 W8G17     30.06F FOG
BLUEFIELD      CLOUDY    40  35  83 W14G20    30.02F
LEWISBURG      CLOUDY    42  37  82 W5        29.99S
$$

WVZ047-170700-
Northern Mountains of West Virginia

CITY           SKY/WX    TMP DP  RH WIND       PRES   REMARKS
ELKINS         LGT RAIN  40  38  93 VRB5      29.98F FOG
$$

WVZ052-170700-
Eastern Panhandle of West Virginia

CITY           SKY/WX    TMP DP  RH WIND       PRES   REMARKS
MARTINSBURG    FOG       39  36  89 CALM      29.90S VSB 1/2
PETERSBURG     LGT RAIN  47  39  76 CALM      29.95S
$$


USA.gov is the U.S. government's official web portal to all federal, state and local government web resources and services.